COSMOS 415

Satellite information

Favourite Embed

Satellite Type and Status

PAYLOADIN ORBIT

Key statistics

Satellite COSMOS 415 at a glance.

Uptime

19785

Days in orbit

Revolutions

≈ 12.5

Per day

Orbit

LEO

Low Earth Orbit

Inclination

74.0

Latest

Satellite identification and parameters

Extended collection of information and parameters for COSMOS 415.

Object identification

Identified? True

Debris? False

Object name: COSMOS 415

International designator: 1971-041E

Object number (NORAD): 5214

Object ID (CCSDS): 5214

Country: COMMONWEALTH OF INDEPENDENT STATES (CIS)

Current information (Y/N): Y

RCS size: MEDIUM

Orbital parameters

Period: 115.432 minutes

Inclination: 74.0122 deg

SMA: 7853.146 km

Apoapsis: 1499.492 km

Periapsis: 1450.531 km

RAAN: 184.5465 deg

Eccentricy: 0.0031173

Argument of periapsis: 111.0728 deg

Mean anomaly: 249.3659 deg

Mean motion: 12.47490403 rev/day

Mean motion (dot): 0.00000009 rev/day2

B* drag term: 0.00016567 1/REarth

Two-line elements (TLE)

Creation date: July 6, 2025, 6:05 p.m.

Reference frame: TEME

Reference center: EARTH

Epoch: July 6, 2025, 10:05 a.m. UTC

TLE line 0: 0 COSMOS 415

TLE line 1: 1 05214U 71041E 25187.42018618 .00000009 00000-0 16567-3 0 9995

TLE line 2: 2 05214 74.0122 184.5465 0031173 111.0728 249.3659 12.47490403466567

Live tracking on map

Real-time ground track for satellite COSMOS 415.

In-orbit conjunctions

There are no conjunctions computed for COSMOS 415, at the moment. Check back to stay up to date, as we update our databases every day.

Go to all conjunctions

Associated space launch

Military communications satellites

COSMOS 415 was lifted into orbit during the mission ‘Kosmos-3M | Strela-1M 9-16’, on board a Kosmos-3M space rocket.

The launch took place on May 7, 1971, 2:20 p.m. from 132/1 (132L).

For more information about the launch, click the button.

Launch to space Kosmos-3M | Strela-1M 9-16
Kosmos-3M | Strela-1M 9-16

Agency: N/A

Status: Launch Successful

Launch date: May 7, 1971, 2:20 p.m. UTC

Rocket: Kosmos-3M

Launch pad: 132/1 (132L)

Location: Plesetsk Cosmodrome, Russian Federation

...

Latest news about this satellite

There are no fresh news available about this satellite. Check back as we update our databases every day.


Newsletter sign-up

Weekly statistics, charts and insights to help you stay on top of the space industry.